Precipitable_Water
0.44 0.35 0.30 0.31 0.30 0.27 0.22 0.17 0.19 0.29 0.39 0.45 0.40 0.46 0.56 0.66 0.70 0.75 0.86 0.88 0.88 0.94 1.07 1.18 1.30 1.40 1.34 1.45 1.54 1.64 1.68 1.59 1.55 1.41 1.29 1.20 1.04 0.88 0.73 0.62 0.54 0.53 0.54 0.52
0.43 0.38 0.45 0.43 0.34 0.29 0.27 0.21 0.23 0.36 0.45 0.48 0.42 0.47 0.57 0.63 0.69 0.72 0.76 0.82 0.88 0.97 1.05 1.12 1.20 1.25 1.34 1.37 1.54 1.60 1.55 1.48 1.47 1.34 1.30 1.15 1.00 0.78 0.66 0.58 0.54 0.54 0.54 0.53
0.47 0.46 0.53 0.44 0.37 0.30 0.28 0.26 0.23 0.32 0.52 0.48 0.39 0.38 0.49 0.63 0.70 0.75 0.79 0.85 0.84 0.87 0.93 1.01 1.09 1.20 1.33 1.40 1.49 1.47 1.44 1.40 1.35 1.20 1.20 1.08 0.90 0.70 0.58 0.53 0.51 0.53 0.55 0.56
0.51 0.51 0.47 0.44 0.36 0.39 0.28 0.32 0.27 0.37 0.50 0.37 0.47 0.22 0.37 0.49 0.57 0.66 0.74 0.80 0.82 0.84 0.91 0.98 1.12 1.20 1.32 1.42 1.46 1.37 1.35 1.28 1.14 1.14 1.10 0.90 0.65 0.55 0.52 0.51 0.52 0.54 0.57 0.57
0.49 0.50 0.49 0.42 0.40 0.42 0.34 0.37 0.34 0.40 0.47 0.53 0.49 0.31 0.44 0.49 0.45 0.52 0.64 0.77 0.86 0.90 0.93 0.93 0.98 1.08 1.20 1.30 1.27 1.28 1.27 1.15 1.04 1.07 0.93 0.78 0.64 0.59 0.55 0.54 0.56 0.57 0.59 0.59
0.55 0.61 0.58 0.52 0.52 0.46 0.47 0.41 0.55 0.55 0.53 0.36 0.41 0.39 0.34 0.43 0.44 0.50 0.58 0.65 0.72 0.78 0.81 0.84 0.93 1.03 0.99 1.01 1.09 1.19 1.25 1.00 0.99 0.90 0.87 0.74 0.64 0.56 0.54 0.55 0.56 0.58 0.59 0.58
0.49 0.51 0.59 0.61 0.46 0.48 0.40 0.39 0.36 0.36 0.40 0.36 0.50 0.41 0.41 0.48 0.44 0.42 0.44 0.50 0.56 0.61 0.69 0.75 0.82 0.85 0.86 0.96 1.05 1.13 1.06 0.89 0.88 0.86 0.76 0.69 0.64 0.59 0.56 0.57 0.56 0.55 0.53 0.54
0.41 0.37 0.52 0.59 0.51 0.41 0.40 0.44 0.38 0.32 0.30 0.35 0.44 0.34 0.37 0.44 0.48 0.51 0.48 0.49 0.55 0.58 0.68 0.69 0.74 0.81 0.89 0.94 0.99 0.97 0.90 0.82 0.87 0.76 0.70 0.66 0.64 0.60 0.58 0.56 0.53 0.53 0.53 0.54
0.43 0.41 0.55 0.60 0.58 0.52 0.44 0.43 0.60 0.47 0.40 0.36 0.36 0.37 0.39 0.46 0.44 0.49 0.56 0.57 0.61 0.60 0.63 0.66 0.70 0.71 0.73 0.79 0.84 0.86 0.87 0.88 0.76 0.69 0.66 0.63 0.62 0.58 0.54 0.53 0.54 0.53 0.50 0.45
0.49 0.43 0.52 0.55 0.57 0.50 0.51 0.57 0.43 0.49 0.32 0.29 0.31 0.32 0.36 0.38 0.42 0.51 0.56 0.57 0.58 0.61 0.60 0.59 0.60 0.61 0.64 0.70 0.78 0.82 0.82 0.76 0.68 0.65 0.63 0.60 0.55 0.52 0.51 0.49 0.44 0.43 0.44 0.45
0.47 0.47 0.47 0.58 0.44 0.38 0.44 0.45 0.48 0.49 0.46 0.34 0.28 0.30 0.37 0.36 0.43 0.47 0.50 0.53 0.52 0.55 0.55 0.56 0.58 0.61 0.63 0.68 0.72 0.73 0.71 0.64 0.61 0.60 0.56 0.50 0.47 0.45 0.43 0.42 0.43 0.45 0.47 0.47
0.41 0.39 0.38 0.46 0.55 0.51 0.42 0.41 0.51 0.43 0.38 0.40 0.38 0.36 0.42 0.39 0.40 0.45 0.45 0.49 0.53 0.54 0.54 0.57 0.60 0.62 0.64 0.66 0.66 0.64 0.60 0.59 0.58 0.51 0.46 0.44 0.42 0.42 0.42 0.43 0.45 0.46 0.46 0.46
0.33 0.33 0.28 0.33 0.45 0.45 0.40 0.48 0.47 0.45 0.47 0.41 0.35 0.38 0.47 0.45 0.45 0.49 0.46 0.48 0.50 0.51 0.52 0.53 0.53 0.53 0.54 0.54 0.54 0.54 0.55 0.51 0.45 0.41 0.39 0.39 0.40 0.41 0.43 0.44 0.45 0.45 0.44 0.40
0.35 0.28 0.27 0.25 0.29 0.32 0.32 0.47 0.49 0.45 0.38 0.40 0.41 0.42 0.41 0.42 0.42 0.45 0.46 0.47 0.47 0.46 0.45 0.45 0.45 0.46 0.48 0.50 0.51 0.49 0.41 0.38 0.38 0.38 0.39 0.40 0.42 0.44 0.45 0.45 0.43 0.40 0.34 0.31
0.31 0.23 0.26 0.26 0.29 0.28 0.28 0.30 0.45 0.38 0.40 0.37 0.36 0.31 0.35 0.36 0.34 0.40 0.43 0.42 0.41 0.40 0.40 0.42 0.44 0.46 0.47 0.45 0.40 0.36 0.36 0.37 0.38 0.39 0.41 0.43 0.45 0.46 0.44 0.40 0.35 0.32 0.29 0.29
0.32 0.25 0.25 0.22 0.28 0.28 0.24 0.26 0.28 0.27 0.27 0.27 0.27 0.24 0.30 0.31 0.33 0.35 0.38 0.38 0.38 0.39 0.41 0.43 0.44 0.42 0.39 0.34 0.35 0.36 0.37 0.38 0.41 0.42 0.44 0.46 0.45 0.41 0.37 0.33 0.30 0.30 0.31 0.32
0.28 0.26 0.26 0.19 0.24 0.25 0.26 0.28 0.30 0.29 0.29 0.27 0.22 0.26 0.29 0.30 0.32 0.36 0.39 0.41 0.41 0.41 0.41 0.40 0.38 0.35 0.34 0.35 0.36 0.36 0.38 0.41 0.43 0.44 0.44 0.41 0.38 0.33 0.31 0.30 0.30 0.30 0.31 0.33
0.28 0.27 0.28 0.22 0.26 0.19 0.28 0.35 0.34 0.30 0.30 0.29 0.31 0.32 0.33 0.34 0.35 0.35 0.38 0.40 0.40 0.40 0.39 0.37 0.34 0.34 0.35 0.36 0.37 0.39 0.41 0.43 0.43 0.40 0.38 0.35 0.32 0.29 0.29 0.29 0.30 0.31 0.32 0.32
0.34 0.29 0.25 0.22 0.25 0.28 0.29 0.31 0.27 0.25 0.22 0.25 0.24 0.30 0.32 0.31 0.28 0.26 0.30 0.34 0.35 0.36 0.34 0.33 0.33 0.33 0.35 0.36 0.39 0.41 0.41 0.41 0.38 0.35 0.32 0.31 0.30 0.29 0.29 0.30 0.31 0.32 0.32 0.34
0.33 0.34 0.28 0.26 0.25 0.23 0.28 0.30 0.31 0.23 0.16 0.23 0.26 0.26 0.23 0.22 0.17 0.19 0.26 0.27 0.28 0.28 0.28 0.29 0.32 0.34 0.36 0.38 0.41 0.41 0.39 0.36 0.32 0.31 0.30 0.31 0.31 0.31 0.31 0.32 0.32 0.33 0.34 0.34
0.24 0.27 0.27 0.28 0.27 0.30 0.31 0.34 0.32 0.21 0.19 0.24 0.26 0.24 0.22 0.20 0.20 0.23 0.26 0.26 0.27 0.29 0.30 0.33 0.34 0.35 0.38 0.41 0.41 0.37 0.33 0.30 0.30 0.31 0.32 0.32 0.33 0.33 0.33 0.33 0.34 0.34 0.34 0.34
0.23 0.23 0.24 0.27 0.27 0.22 0.36 0.35 0.27 0.29 0.30 0.29 0.27 0.26 0.25 0.26 0.27 0.26 0.27 0.28 0.29 0.30 0.32 0.34 0.35 0.38 0.40 0.39 0.34 0.30 0.29 0.31 0.32 0.32 0.33 0.33 0.34 0.35 0.34 0.34 0.35 0.34 0.34 0.34
0.24 0.27 0.26 0.29 0.29 0.39 0.42 0.40 0.40 0.37 0.35 0.34 0.31 0.30 0.30 0.29 0.29 0.28 0.28 0.29 0.31 0.31 0.33 0.37 0.39 0.37 0.35 0.33 0.31 0.28 0.30 0.32 0.33 0.33 0.33 0.34 0.35 0.34 0.34 0.33 0.33 0.34 0.34 0.29
0.32 0.37 0.32 0.33 0.36 0.39 0.41 0.43 0.41 0.41 0.38 0.38 0.38 0.35 0.34 0.31 0.30 0.29 0.30 0.31 0.31 0.33 0.36 0.39 0.36 0.31 0.30 0.30 0.31 0.31 0.33 0.35 0.34 0.33 0.33 0.34 0.34 0.34 0.34 0.34 0.35 0.30 0.28 0.28
0.33 0.34 0.32 0.31 0.37 0.39 0.42 0.42 0.44 0.45 0.44 0.39 0.38 0.35 0.32 0.32 0.30 0.31 0.31 0.31 0.33 0.37 0.38 0.36 0.31 0.30 0.29 0.30 0.31 0.34 0.36 0.36 0.35 0.34 0.34 0.34 0.34 0.33 0.32 0.30 0.28 0.28 0.31 0.33
0.30 0.26 0.26 0.27 0.36 0.35 0.41 0.45 0.46 0.45 0.44 0.41 0.37 0.33 0.33 0.33 0.32 0.32 0.31 0.34 0.37 0.37 0.36 0.32 0.31 0.30 0.29 0.31 0.33 0.36 0.37 0.37 0.36 0.34 0.33 0.33 0.31 0.29 0.28 0.26 0.27 0.32 0.34 0.38
Wind_Speed
17 19 21 23 26 30 31 33 36 34 33 34 37 35 30 29 29 30 28 26 25 25 27 26 30 28 25 20 20 20 19 18 18 17 15 15 15 16 16 17 17 17 18 18
19 21 23 23 23 25 28 32 34 32 32 34 34 35 34 30 29 28 28 28 27 26 27 26 27 25 23 22 22 21 20 19 18 17 17 16 16 17 18 19 19 19 19 20
26 24 24 19 20 22 25 28 31 31 27 31 30 34 35 31 30 29 29 27 26 26 26 27 27 26 24 24 22 21 21 20 19 19 18 17 17 18 19 20 20 20 21 22
17 14 15 16 16 17 21 21 27 27 22 25 30 27 32 32 30 29 29 28 26 25 25 24 25 24 23 24 23 22 21 20 20 20 19 19 19 20 20 20 21 21 23 24
14 18 16 12 13 14 16 16 21 24 22 23 21 24 19 24 29 30 28 28 26 25 24 24 24 23 23 23 23 23 21 21 20 20 20 19 20 20 19 20 21 23 24 25
16 12 9 9 6 6 9 14 16 14 15 19 21 22 22 21 23 23 23 24 25 24 23 23 22 22 21 21 22 22 21 20 20 20 20 20 20 20 21 21 22 24 25 26
16 8 10 8 4 3 10 14 10 11 10 13 15 17 17 13 16 18 18 21 21 21 21 21 21 21 20 20 20 20 20 19 19 19 20 20 21 22 23 24 25 26 27 28
15 8 12 10 4 1 10 12 7 4 9 9 11 13 9 10 13 13 15 16 16 18 18 18 18 19 19 19 18 19 19 18 19 19 20 21 22 23 24 25 26 28 29 30
14 7 10 6 3 2 6 8 7 2 6 6 8 9 10 7 10 12 14 15 13 14 15 16 16 16 16 17 17 17 17 17 18 19 20 22 23 24 24 25 26 28 30 32
10 11 9 8 1 3 4 9 3 6 4 6 7 4 4 6 10 10 12 13 12 13 13 13 14 14 14 14 15 15 16 17 18 19 20 22 22 23 25 26 28 31 33 35
9 10 13 4 3 1 2 5 5 3 2 3 5 6 3 2 5 9 11 11 11 12 12 12 12 12 12 13 13 14 15 16 17 19 20 21 23 24 27 29 32 34 36 38
10 10 10 5 5 2 3 2 3 3 3 2 3 3 2 2 3 7 9 10 10 10 11 11 11 11 11 12 12 13 15 16 18 19 20 22 24 27 30 32 35 37 39 40
12 8 7 5 6 3 3 3 3 2 1 2 4 4 3 2 3 7 8 9 9 10 10 10 11 11 11 12 13 14 16 17 18 20 22 24 27 30 33 35 37 39 41 42
11 8 6 6 6 4 4 3 5 4 3 2 5 7 5 2 4 7 8 9 9 10 10 10 10 11 12 13 14 15 16 17 19 22 25 28 30 33 35 37 39 41 42 43
10 8 7 8 8 5 4 3 4 6 7 6 4 6 7 7 6 8 9 9 10 10 11 11 11 12 13 14 14 15 17 19 22 25 28 30 32 35 37 39 40 41 42 42
9 7 8 6 3 3 4 5 5 7 6 8 9 10 3 4 4 7 9 10 10 11 11 11 12 13 13 14 15 17 20 23 25 28 30 32 34 36 38 39 40 40 41 41
8 7 7 4 4 5 1 3 1 2 4 5 6 3 5 4 4 6 8 10 11 11 12 12 13 13 14 16 18 21 23 25 28 29 31 34 36 37 38 39 39 40 40 40
8 7 5 5 6 1 3 3 2 4 4 5 8 6 5 5 5 5 7 10 11 11 12 12 13 14 16 18 21 23 25 27 29 31 33 35 36 37 37 38 38 38 37 35
7 6 5 4 4 2 1 4 3 3 3 6 5 4 4 4 4 4 6 7 8 10 10 11 13 15 17 20 22 24 26 28 30 32 34 35 36 36 36 37 36 34 33 32
5 6 6 4 4 2 3 4 3 2 2 4 3 3 3 4 5 5 6 6 6 7 9 11 14 16 18 20 23 25 27 30 32 34 34 35 35 35 35 33 32 31 30 28
5 6 7 7 6 5 4 5 5 4 5 5 5 4 5 6 7 6 6 5 6 8 10 12 14 17 19 22 24 27 30 32 33 34 34 34 33 33 32 30 30 29 25 23
7 6 7 6 7 5 5 5 5 5 6 7 6 6 6 6 6 5 6 6 7 9 11 13 15 18 21 24 27 29 31 32 33 34 33 32 31 30 28 28 26 23 22 23
9 9 7 9 6 6 8 8 8 8 8 8 8 9 9 8 8 7 7 8 9 11 13 15 17 20 23 26 29 31 32 33 33 32 31 29 28 27 26 24 22 21 22 23
11 10 10 10 9 9 8 8 8 9 10 10 11 10 10 10 8 8 8 9 11 12 14 17 19 22 25 28 30 32 33 33 32 30 29 27 26 25 23 20 20 21 22 23
13 13 12 13 15 11 10 10 10 11 12 12 11 12 11 10 9 9 9 10 11 13 16 18 21 25 27 30 31 33 33 32 30 28 26 25 23 21 19 18 19 21 22 23
20 20 17 15 14 14 15 13 14 14 13 12 11 10 10 9 9 9 9 10 12 14 16 20 23 27 29 31 32 33 33 30 28 25 23 21 19 17 17 18 20 20 22 22
Wind_Direction
299 289 282 281 269 262 256 250 246 239 235 229 229 228 228 226 227 225 225 225 225 226 225 226 231 240 244 246 243 245 248 252 249 252 252 253 262 268 271 272 271 271 272 273
305 287 289 284 274 259 253 247 240 239 230 226 227 227 227 224 226 225 226 227 229 231 230 232 233 237 241 242 246 247 249 250 249 251 255 260 264 271 274 274 271 271 272 274
308 293 295 282 268 257 252 244 231 230 224 225 226 228 225 227 227 228 228 229 229 230 231 233 232 236 241 242 244 246 249 250 250 253 254 259 268 274 277 273 272 272 273 275
316 316 305 291 265 257 251 238 224 221 218 217 216 224 221 223 225 226 227 227 229 231 232 232 232 236 239 243 244 245 249 249 251 251 252 258 269 275 275 274 273 274 275 277
320 313 311 295 271 258 244 228 211 215 218 219 207 219 206 218 224 225 228 229 230 230 233 233 234 238 243 243 243 246 248 247 251 248 254 261 269 275 277 276 275 276 278 279
326 324 326 326 312 246 227 195 192 196 205 213 208 215 216 217 222 221 225 226 229 230 233 234 237 241 242 241 243 244 242 247 247 250 255 263 270 274 277 278 279 280 281 281
348 355 356 348 314 168 181 187 186 192 194 206 199 207 219 212 219 223 225 225 227 230 232 234 236 236 236 239 241 240 240 244 246 251 259 265 271 275 278 279 280 281 282 284
8 6 3 3 9 141 175 189 178 219 193 164 178 204 202 219 218 219 221 216 222 226 229 230 231 233 235 236 237 238 239 244 248 255 262 269 273 278 280 281 282 283 284 286
8 351 360 358 355 193 168 180 160 295 193 186 179 203 205 212 207 212 211 210 219 222 223 225 227 229 230 232 235 234 238 245 253 260 267 273 277 279 281 282 284 286 288 288
4 3 359 353 356 162 209 172 174 180 167 148 153 162 182 188 207 206 205 210 216 219 220 221 222 224 229 231 231 237 243 249 259 266 272 276 279 281 283 286 287 289 290 291
7 7 359 19 48 10 172 198 202 181 180 127 136 127 112 163 212 204 203 208 211 212 214 215 218 224 227 228 234 241 248 257 264 271 276 278 281 284 287 289 291 292 293 293
7 5 32 12 348 271 261 277 228 226 165 179 187 152 109 139 186 193 193 203 207 208 212 217 221 223 227 234 241 250 257 265 271 275 278 282 285 288 291 292 294 294 295 295
359 7 360 29 38 74 298 237 217 184 222 160 191 179 208 235 224 211 202 204 207 209 213 216 220 227 235 245 252 259 266 271 274 279 283 287 290 292 294 295 296 296 297 297
347 351 348 347 353 350 332 226 227 239 236 217 231 259 280 281 234 215 209 208 209 213 216 221 229 238 247 254 261 267 270 275 280 285 289 291 293 295 296 297 298 298 298 298
342 334 341 316 312 312 303 286 235 237 253 254 277 266 283 285 266 226 216 215 217 221 226 232 239 248 255 262 266 271 277 283 287 290 293 295 296 298 298 299 300 300 300 300
334 326 334 340 18 353 303 286 263 259 260 261 270 279 289 275 257 223 219 220 224 228 235 242 250 256 260 265 272 279 284 289 291 293 295 297 299 300 301 301 302 301 301 301
315 323 328 327 319 322 59 18 329 286 261 269 261 278 287 274 265 243 234 235 237 240 244 250 255 259 267 274 280 286 289 292 294 296 298 300 301 302 303 303 303 303 303 304
299 307 310 313 322 43 4 356 317 295 296 293 269 276 285 281 270 267 262 248 248 247 250 255 261 269 276 282 287 291 293 295 297 299 301 302 303 304 305 305 305 305 306 305
271 291 295 297 311 309 327 339 335 326 332 326 291 265 266 267 267 278 277 266 259 256 257 263 271 278 284 288 292 294 297 299 300 302 303 304 305 306 306 307 307 307 307 306
280 267 273 279 280 280 318 323 317 302 349 342 316 262 250 264 276 283 284 275 266 262 269 276 283 287 291 294 297 299 301 302 303 304 304 305 306 306 307 308 308 308 308 306
277 264 255 259 268 265 290 304 302 297 317 314 300 276 266 288 299 287 275 270 272 278 283 289 292 295 298 299 301 303 304 304 305 305 305 306 306 307 308 308 309 308 307 306
272 266 254 251 257 255 279 286 300 302 300 299 294 283 277 287 289 275 269 274 280 287 293 297 300 302 304 305 306 306 307 307 307 307 306 306 307 308 308 308 310 309 308 308
262 264 273 249 248 271 280 281 290 290 293 295 292 288 279 277 277 267 271 279 287 295 300 303 306 308 309 310 310 310 310 309 309 308 308 307 308 309 309 309 309 310 310 310
254 258 257 265 245 258 276 286 285 285 284 288 291 287 275 273 263 265 274 284 293 299 304 308 311 313 314 314 314 313 312 311 310 309 309 309 309 310 309 308 310 312 313 314
259 257 253 256 259 257 260 271 288 292 288 285 287 287 273 264 258 265 276 287 295 303 309 313 316 318 318 318 317 316 314 313 311 310 309 309 310 310 310 310 313 315 315 316
248 245 245 249 251 263 266 270 286 288 284 281 282 283 268 254 257 268 282 290 300 308 313 317 320 321 322 321 320 319 317 315 313 312 311 311 311 311 311 314 317 319 319 319